When you browse on this site, cookies collect data to enhance your experience and personalize the content and advertising you see.
Visit our Privacy Policy to learn more. By continuing to use the site, you agree to this use of cookies and data.
  • In Spain
  • List of Countries
  • For 7 days
  • Water Temperature
  • Weather Map
  • Weather Widgets
  • user-avatar
    Login

    Hourly Weather Sarajevo

    Today, 20 February, Thursday

    Time Temperature Precipitation Wind Pressure Humidity
    00:00 +2°C° 0.9 mm 2 mps 687 mmHg 95%
    01:00 +1°C° 0 mm 3 mps 687 mmHg 95%
    02:00 +1°C° 1.5 mm 3 mps 687 mmHg 94%
    03:00 -1°C° 1.5 mm 4 mps 687 mmHg 92%
    04:00 -1°C° 1.5 mm 4 mps 687 mmHg 91%
    05:00 -2°C° 0.5 mm 4 mps 688 mmHg 91%
    06:00 -2°C° 0.5 mm 5 mps 688 mmHg 90%
    07:00 -2°C° 0 mm 5 mps 689 mmHg 89%
    08:00 -2°C° 0.1 mm 5 mps 689 mmHg 84%
    09:00 -1°C° 0.1 mm 5 mps 690 mmHg 80%
    10:00 -1°C° 0.1 mm 5 mps 690 mmHg 75%
    11:00 0°C° 0 mm 5 mps 690 mmHg 74%
    12:00 0°C° 0 mm 5 mps 690 mmHg 73%
    13:00 0°C° 0 mm 5 mps 690 mmHg 72%
    14:00 0°C° 0 mm 4 mps 690 mmHg 73%
    15:00 0°C° 0 mm 4 mps 690 mmHg 74%
    16:00 +1°C° 0 mm 3 mps 690 mmHg 75%
    17:00 -1°C° 0 mm 3 mps 690 mmHg 80%
    18:00 -2°C° 0 mm 2 mps 690 mmHg 85%
    19:00 -3°C° 0 mm 2 mps 690 mmHg 90%
    20:00 -3°C° 0 mm 2 mps 691 mmHg 90%
    21:00 -1°C° 0 mm 1 mps 691 mmHg 90%
    22:00 -1°C° 0 mm 1 mps 691 mmHg 90%
    23:00 -2°C° 0 mm 1 mps 691 mmHg 89%

    Tomorrow, 21 February, Friday

    Time Temperature Precipitation Wind Pressure Humidity
    00:00 -2°C° 0 mm 1 mps 691 mmHg 89%
    01:00 -2°C° 0 mm 1 mps 691 mmHg 88%
    02:00 -2°C° 0 mm 1 mps 691 mmHg 87%
    03:00 -2°C° 0 mm 1 mps 690 mmHg 85%
    04:00 -2°C° 0 mm 1 mps 690 mmHg 83%
    05:00 -2°C° 0 mm 1 mps 690 mmHg 80%
    06:00 -1°C° 0 mm 1 mps 691 mmHg 76%
    07:00 -1°C° 0 mm 1 mps 691 mmHg 72%
    14:00 +8°C° 0 mm 1 mps 693 mmHg 56%
    15:00 +7°C° 0 mm 1 mps 693 mmHg 62%
    16:00 +6°C° 0 mm 2 mps 693 mmHg 67%
    17:00 +4°C° 0 mm 2 mps 693 mmHg 73%
    18:00 +3°C° 0 mm 2 mps 693 mmHg 78%
    19:00 +1°C° 0 mm 2 mps 694 mmHg 84%
    20:00 +1°C° 0 mm 2 mps 694 mmHg 86%
    21:00 -1°C° 0 mm 2 mps 694 mmHg 89%
    22:00 -1°C° 0 mm 2 mps 694 mmHg 91%
    23:00 -2°C° 0 mm 2 mps 694 mmHg 91%

    Day after tomorrow, 22 February, Saturday

    Time Temperature Precipitation Wind Pressure Humidity
    00:00 -2°C° 0 mm 2 mps 694 mmHg 90%
    01:00 -2°C° 0 mm 2 mps 694 mmHg 89%
    02:00 -2°C° 0 mm 2 mps 694 mmHg 88%
    03:00 -3°C° 0 mm 2 mps 694 mmHg 88%
    04:00 -3°C° 0 mm 2 mps 694 mmHg 88%
    05:00 -3°C° 0 mm 2 mps 694 mmHg 87%
    06:00 -3°C° 0 mm 2 mps 695 mmHg 85%
    07:00 -3°C° 0 mm 2 mps 695 mmHg 84%
    08:00 -2°C° 0 mm 2 mps 695 mmHg 76%
    09:00 0°C° 0 mm 3 mps 696 mmHg 68%
    10:00 +1°C° 0 mm 3 mps 697 mmHg 60%
    11:00 +2°C° 0 mm 3 mps 697 mmHg 59%
    12:00 +3°C° 0 mm 3 mps 697 mmHg 57%
    13:00 +4°C° 0 mm 2 mps 697 mmHg 56%
    14:00 +4°C° 0 mm 2 mps 696 mmHg 57%
    15:00 +4°C° 0 mm 2 mps 696 mmHg 58%
    16:00 +5°C° 0 mm 1 mps 696 mmHg 59%
    17:00 +4°C° 0 mm 1 mps 696 mmHg 64%
    18:00 +3°C° 0 mm 1 mps 696 mmHg 69%
    19:00 +1°C° 0 mm 1 mps 696 mmHg 73%
    20:00 +1°C° 0 mm 1 mps 696 mmHg 72%
    21:00 +1°C° 0 mm 1 mps 696 mmHg 71%
    22:00 +1°C° 0 mm 1 mps 696 mmHg 70%
    23:00 +2°C° 0 mm 1 mps 696 mmHg 67%

    23 February, Sunday

    Time Temperature Precipitation Wind Pressure Humidity
    00:00 +2°C° 0 mm 1 mps 696 mmHg 64%
    01:00 +2°C° 0 mm 1 mps 696 mmHg 61%
    02:00 +3°C° 0 mm 1 mps 695 mmHg 58%
    03:00 +2°C° 0 mm 0 mps 695 mmHg 54%
    04:00 +2°C° 0 mm 0 mps 694 mmHg 51%
    05:00 +3°C° 0 mm 1 mps 694 mmHg 49%
    06:00 +4°C° 0 mm 1 mps 694 mmHg 48%
    07:00 +4°C° 0 mm 1 mps 694 mmHg 46%
    08:00 +6°C° 0 mm 1 mps 695 mmHg 46%
    09:00 +8°C° 0 mm 1 mps 695 mmHg 46%
    10:00 +10°C° 0 mm 1 mps 695 mmHg 45%
    11:00 +11°C° 0 mm 1 mps 695 mmHg 47%
    12:00 +10°C° 0 mm 2 mps 695 mmHg 50%
    13:00 +12°C° 0 mm 2 mps 695 mmHg 52%
    14:00 +10°C° 0 mm 2 mps 694 mmHg 57%
    15:00 +9°C° 0 mm 2 mps 694 mmHg 63%
    16:00 +9°C° 0 mm 1 mps 693 mmHg 69%
    17:00 +7°C° 0 mm 1 mps 693 mmHg 72%
    18:00 +6°C° 0 mm 1 mps 692 mmHg 75%
    19:00 +4°C° 0 mm 1 mps 692 mmHg 79%
    20:00 +4°C° 0 mm 1 mps 692 mmHg 79%
    21:00 +4°C° 0 mm 1 mps 692 mmHg 79%
    22:00 +4°C° 0 mm 1 mps 692 mmHg 80%
    23:00 +3°C° 0 mm 1 mps 692 mmHg 81%

    24 February, Monday

    Time Temperature Precipitation Wind Pressure Humidity
    00:00 +3°C° 0 mm 1 mps 692 mmHg 82%
    01:00 +3°C° 0 mm 1 mps 692 mmHg 83%
    02:00 +3°C° 0 mm 1 mps 691 mmHg 83%
    03:00 +3°C° 0 mm 1 mps 691 mmHg 83%
    04:00 +3°C° 0 mm 1 mps 691 mmHg 83%
    05:00 +3°C° 0 mm 1 mps 691 mmHg 84%
    06:00 +3°C° 0 mm 1 mps 691 mmHg 85%
    07:00 +3°C° 0 mm 1 mps 691 mmHg 86%
    08:00 +5°C° 0 mm 1 mps 691 mmHg 81%
    09:00 +7°C° 0 mm 1 mps 692 mmHg 76%
    10:00 +8°C° 0 mm 0 mps 692 mmHg 71%
    11:00 +11°C° 0 mm 1 mps 692 mmHg 68%
    12:00 +12°C° 0 mm 1 mps 692 mmHg 65%
    13:00 +13°C° 0 mm 1 mps 692 mmHg 61%
    14:00 +13°C° 0 mm 1 mps 692 mmHg 64%
    15:00 +13°C° 0 mm 1 mps 692 mmHg 67%
    16:00 +12°C° 0 mm 0 mps 692 mmHg 70%
    17:00 +11°C° 0 mm 1 mps 692 mmHg 74%
    18:00 +9°C° 0 mm 1 mps 692 mmHg 77%
    19:00 +8°C° 0 mm 1 mps 692 mmHg 81%
    20:00 +7°C° 0 mm 1 mps 692 mmHg 81%
    21:00 +7°C° 0 mm 1 mps 691 mmHg 81%
    22:00 +7°C° 0 mm 1 mps 691 mmHg 81%
    23:00 +7°C° 0 mm 1 mps 691 mmHg 81%

    25 February, Tuesday

    Time Temperature Precipitation Wind Pressure Humidity
    00:00 +7°C° 0 mm 1 mps 691 mmHg 81%
    01:00 +6°C° 0 mm 1 mps 691 mmHg 81%
    02:00 +6°C° 0 mm 1 mps 690 mmHg 81%
    03:00 +6°C° 0 mm 1 mps 690 mmHg 81%
    04:00 +6°C° 0 mm 1 mps 690 mmHg 81%
    05:00 +6°C° 0 mm 1 mps 689 mmHg 80%
    06:00 +6°C° 0 mm 1 mps 689 mmHg 80%
    07:00 +6°C° 0 mm 1 mps 689 mmHg 79%
    08:00 +7°C° 0 mm 2 mps 689 mmHg 76%
    09:00 +9°C° 0 mm 2 mps 689 mmHg 73%
    10:00 +12°C° 0 mm 2 mps 689 mmHg 69%
    11:00 +12°C° 0 mm 2 mps 689 mmHg 67%
    12:00 +12°C° 0 mm 3 mps 688 mmHg 65%
    13:00 +12°C° 0 mm 3 mps 688 mmHg 63%
    14:00 +11°C° 0 mm 3 mps 687 mmHg 68%
    15:00 +11°C° 0 mm 3 mps 687 mmHg 73%
    16:00 +10°C° 0 mm 3 mps 686 mmHg 78%
    17:00 +9°C° 0 mm 2 mps 686 mmHg 83%
    18:00 +8°C° 0 mm 2 mps 686 mmHg 89%
    19:00 +6°C° 0 mm 2 mps 686 mmHg 94%
    20:00 +6°C° 0 mm 2 mps 686 mmHg 94%
    21:00 +6°C° 0 mm 2 mps 686 mmHg 93%
    22:00 +6°C° 0 mm 2 mps 686 mmHg 92%
    23:00 +6°C° 0 mm 2 mps 685 mmHg 93%
    Show more